World > North America > United States > Georgia > Akin  

Akin, GA Hourly Weather Updates

Feedback E-mail the Weather

Quick Clicks

Akin, GA Weather Maps

°F °C°F °C
Akin Weather Map
UTC Time: 6/14/2024, 11:44
Your Time:

Akin, GA Regional Weather

Expires:202406141200;;998918
ASUS42 KCHS 141126
RWRCHS

Regional Weather Roundup
National Weather Service Charleston SC
700 AM EDT FRI JUN 14 2024

NOTE: "fair" indicates few or no clouds below 12,000 feet with no
significant weather and/or obstructions to visibility.

Not all stations are quality controlled. Use data with caution,
especially dewpoint observations.


GAZ063-065-086>088-099>101-113>116-118-119-134>141-150-141200-
...Southeast Georgia...
  
CITY           SKY/WX    TMP DP  RH WIND       PRES   REMARKS
Savannah Arpt  PTCLDY    72  67  84 N8        29.95R                  
Hunter AAF     LGT RAIN  73  68  83 N6        29.91R                  
Fort Stewart   CLEAR     70  69  98 N6        29.91R                  
Statesboro     CLEAR     68  65  92 CALM      29.97R                  
Sylvania       CLEAR     69  67  92 CALM      29.99R                  
Claxton        CLEAR     68  66  94 CALM      29.97R                  
Millen         CLEAR     68  64  85 NW5       29.99R                  
Metter         CLEAR     69  66  89 CALM      29.97R                  
Reidsville     CLEAR     66 N/A N/A CALM      29.97R                  

...CSRA, Central and far Southeast Georgia...
  
CITY           SKY/WX    TMP DP  RH WIND       PRES   REMARKS
Thomson        CLEAR     64  62  92 CALM      29.99S                  
Augusta-Bush   CLEAR     64  61  90 CALM      29.97R                  
Augusta-Daniel CLEAR     70  61  73 CALM      29.99R                  
Swainsboro     NOT AVBL                                               
Vidalia        CLEAR     70  66  88 CALM      29.98R                  
Eastman        CLEAR     63  61  94 CALM      30.02R FOG              
Hazlehurst     CLEAR     69  65  87 N3        29.97R                  
Alma           CLEAR     70  68  93 CALM      29.95R                  
Waycross       CLEAR     72  71  96 N6        29.95S                  
Jesup          CLEAR     73  70  88 CALM      29.97S                  
Baxley         CLEAR     68  66  94 CALM      29.96S                  
Brunswick      CLOUDY    73  72  95 N8        29.93R                  
Saint Simons   PTCLDY    75  75 100 N10       29.91R                  

$$


SKY/WX - Weather  TMP - Temperature  DP - Dew Point  RH - Humidity
WIND - Wind Direction/Speed PRES - Barometric Pressure VSB - Visibility
WCI - Wind Chill Index E13G22 Wind - East Wind 13 mph/Gusts of 22 mph

Trending Headlines

Trending Entertainment Headlines

Akin Radar Loop

Use the map search tool if you want to place a location marker on the radar map...

Akin Quick Facts

National Two Day Weather Forecast


E-mail the Akin Weather Forecast

Voice your opinion or tell us about page issues...